Flag Weather past 2 weeks in Manama, Bahrain

Now
90 °F

Passing clouds.


Feels Like: 90 °F
Forecast: 83 / 90 °F
Wind: 7 mph from Northeast

Location: Bahrain International Airport

Current Time: Oct 30, 2014 at 3:37:38 PM

Latest Report: Oct 30, 2014 at 3:00 PM


Visibility: N/A

Pressure: 29.83 "Hg

Humidity: 41%

Dew point: 63 °F

Location of ManamaLocation

Historic Weather in Manama — Graph

°F

Manama temperature yesterday

Maximum temperature yesterday: 86 °F (at 10:00 AM)
Minimum temperature yesterday: 81 °F (at 1:00 AM)
Average temperature yesterday: 84 °F

Past Weeks' High & Low Weather Summary

 TemperatureHumidityPressure
High100 °F (Oct 20, 2:00 PM)79% (Oct 26, 6:00 AM)30.04 "Hg (Oct 26, 6:00 AM)
Low79 °F (Oct 24, 12:00 AM)17% (Oct 20, 2:00 PM)29.80 "Hg (Oct 20, 2:00 PM)
Average86 °F55%29.91 "Hg
* Reported Oct 15 2:00 PM — Oct 30 2:00 PM, Manama, Weather by CustomWeather, © 2014

Note: Actual official high and low records may vary slightly from our data, if they occured in-between our weather recording intervals... More about our weather records

Advertising

Manama weather history for previous 24 hours

 ConditionsComfort  
Time TempWeatherWind HumidityBarometerVisibility
2:00 PM
Oct 30
90 °FSunny.6 mph41%29.83 "Hg10 mi
1:00 PM91 °FPassing clouds.7 mph34%29.83 "HgN/A
12:00 PM90 °FPassing clouds.8 mph41%29.86 "HgN/A
11:00 AM90 °FSunny.7 mph43%29.89 "Hg10 mi
10:00 AM90 °FSunny.7 mph43%29.89 "Hg10 mi
9:00 AM88 °FSunny.3 mph52%29.92 "Hg10 mi
8:00 AM88 °FSunny.3 mph46%29.92 "Hg10 mi
7:00 AM82 °FSunny.5 mph66%29.89 "Hg10 mi
6:00 AM81 °FSunny.2 mph66%29.89 "Hg10 mi
5:00 AM81 °FClear.3 mph70%29.86 "Hg5 mi
4:00 AM82 °FClear.3 mph58%29.86 "Hg10 mi
3:00 AM84 °FClear.8 mph51%29.86 "Hg10 mi
2:00 AM84 °FClear.8 mph51%29.86 "Hg10 mi
1:00 AM86 °FClear.13 mph43%29.86 "Hg10 mi
12:00 AM86 °FClear.14 mph46%29.89 "Hg10 mi
11:00 PM
Oct 29
86 °FClear.13 mph46%29.89 "Hg10 mi
10:00 PM84 °FClear.10 mph55%29.92 "Hg10 mi
9:00 PM84 °FClear.9 mph58%29.92 "Hg10 mi
8:00 PM84 °FClear.10 mph58%29.92 "Hg10 mi
7:00 PM84 °FClear.8 mph58%29.89 "Hg10 mi
6:00 PM84 °FClear.12 mph66%29.89 "Hg10 mi
5:00 PM84 °FClear.13 mph62%29.89 "Hg10 mi
4:00 PM86 °FPassing clouds.13 mph59%29.86 "HgN/A
3:00 PM86 °FPassing clouds.12 mph66%29.86 "Hg6 mi
Weather by CustomWeather, © 2014

See weather overviewHow to use our weather pages